Wetbulb
71.16 73.33 75.96 76.52 76.28 76.10 76.12 77.27 77.16 77.11 76.88 77.10 76.91 77.20 76.82 76.77 77.14 77.11 77.22 76.72 77.07 77.26 77.55 77.41 77.47 77.04 77.13 76.74 76.36 75.91 76.04 76.47 76.36 76.45 76.87 76.52 76.47 76.36 76.31 76.36 75.93 74.10 75.05
72.13 73.75 77.08 77.04 76.61 76.30 77.00 76.84 77.28 76.61 76.76 76.60 77.38 77.23 76.56 76.67 76.87 77.29 77.43 76.86 77.08 77.66 77.07 76.77 77.12 77.15 76.93 76.96 76.31 76.54 76.41 76.39 76.40 76.57 76.54 76.61 76.31 76.16 76.05 76.08 75.71 74.47 73.84
72.96 74.37 75.07 76.71 76.71 76.19 76.94 77.41 77.29 76.55 76.48 76.63 76.94 76.97 76.60 76.41 76.48 77.01 76.91 77.15 76.74 76.99 76.94 76.88 76.68 76.79 76.68 76.75 76.36 75.21 75.50 75.73 76.36 76.41 76.65 75.35 75.14 76.06 75.95 76.03 76.10 75.70 74.58
73.75 74.43 74.82 76.79 76.98 76.25 76.73 77.19 77.33 76.21 76.16 76.59 76.53 76.84 76.73 76.46 76.62 76.88 77.27 77.05 76.99 77.05 77.02 77.08 77.07 76.79 76.79 76.52 75.56 75.09 73.56 75.17 75.28 75.42 73.66 74.32 75.11 76.06 75.87 75.95 75.62 75.85 74.80
73.44 74.21 74.50 77.32 77.08 76.47 76.55 76.80 77.21 76.70 76.26 76.35 76.37 76.32 76.35 76.49 76.63 76.55 76.78 76.80 76.57 76.60 76.84 76.60 76.44 75.97 75.83 76.06 76.20 75.63 74.60 73.84 74.56 73.21 72.66 73.21 75.40 75.47 76.04 75.81 75.69 75.74 75.54
72.95 73.19 76.24 76.82 76.28 76.29 76.53 76.72 76.53 76.54 76.37 76.29 76.32 76.49 76.49 76.27 76.33 76.49 76.57 76.71 76.54 76.55 76.19 76.02 75.75 75.33 75.00 74.50 75.05 75.09 74.78 73.97 73.91 72.56 72.91 73.43 72.83 75.49 76.06 75.61 75.44 75.55 75.45
72.19 73.14 74.62 77.22 76.77 76.25 76.31 76.18 76.31 76.29 76.26 76.12 75.91 75.83 75.97 76.02 75.97 75.94 75.88 75.86 76.13 75.94 75.88 75.83 75.63 75.27 75.27 74.83 74.28 74.11 74.23 75.42 71.18 71.82 72.91 73.08 72.80 76.43 75.94 75.76 75.67 75.54 75.32
72.45 73.22 74.28 76.23 76.58 76.50 76.40 76.42 76.36 76.17 76.09 75.93 75.88 75.66 75.44 75.25 75.11 75.25 75.44 75.74 75.83 75.69 75.08 75.22 75.00 74.89 75.00 74.36 74.31 74.51 73.95 74.27 73.28 71.92 72.04 72.78 73.33 75.92 75.51 75.82 75.69 75.42 75.22
73.31 72.82 73.08 73.09 74.72 76.38 76.35 76.56 76.67 76.44 76.34 75.84 75.57 75.36 75.02 74.89 74.55 74.66 74.80 74.86 75.11 75.22 75.47 75.52 75.38 74.91 75.19 74.80 74.61 74.19 74.36 73.88 71.52 72.74 71.09 72.04 74.15 75.65 75.63 75.64 75.77 75.67 75.18
72.60 72.78 72.09 72.31 73.11 73.26 73.78 76.79 76.81 76.59 76.34 76.06 75.66 75.16 75.11 75.41 75.77 75.74 76.00 75.24 75.75 75.36 75.80 75.94 75.96 76.12 75.54 75.24 75.07 75.07 74.17 74.36 72.08 72.83 70.98 71.21 74.10 75.86 75.88 75.76 75.69 75.40 75.31
72.20 71.85 72.34 72.39 72.30 73.10 73.81 74.96 76.52 76.94 76.56 76.01 75.50 75.76 76.07 74.51 74.63 75.33 75.50 76.21 76.16 76.05 76.11 76.11 76.13 76.07 76.25 76.21 76.21 75.10 74.97 73.99 72.89 72.58 72.66 73.77 74.80 76.32 75.89 76.01 75.09 74.89 74.44
70.57 71.77 72.19 72.38 72.57 72.98 74.51 74.00 73.74 73.90 74.17 73.83 74.31 73.85 74.18 74.28 73.51 74.60 75.59 76.35 76.10 76.38 76.93 76.58 76.60 76.49 76.18 75.00 74.82 75.60 74.92 74.42 73.78 72.96 72.56 74.15 74.58 76.05 75.76 75.86 75.33 75.13 74.66
70.45 71.80 72.01 71.99 72.37 72.40 73.20 72.96 72.31 72.55 72.83 73.00 73.39 73.74 73.78 74.19 72.84 72.02 73.72 74.26 74.53 75.43 74.70 75.17 75.73 74.67 75.12 74.69 74.15 73.97 73.98 73.90 73.41 72.99 72.71 73.96 74.95 75.50 75.67 74.58 74.34 73.97 74.55
69.71 71.26 71.76 71.98 71.75 71.81 72.33 72.67 71.96 71.36 72.51 72.75 73.01 73.42 72.97 72.84 71.87 71.34 71.17 72.89 73.19 73.90 73.39 73.45 73.70 73.82 73.85 73.78 74.11 73.31 72.98 73.69 73.73 72.82 72.67 74.10 74.71 75.06 74.98 71.77 74.33 71.81 73.67
69.09 70.39 70.81 71.82 71.65 71.78 71.62 72.36 72.49 71.39 72.20 72.80 72.86 73.03 73.01 72.49 72.43 72.02 71.64 72.32 72.75 72.86 71.83 71.45 72.11 72.25 72.35 72.61 72.94 72.04 72.50 72.50 73.21 73.02 72.92 73.66 74.32 74.67 74.19 74.12 74.88 72.88 71.97
68.58 69.41 69.93 71.18 71.44 71.48 71.43 71.67 72.15 72.11 71.56 72.10 72.39 72.81 73.02 72.86 72.51 72.29 72.34 71.79 72.65 73.38 72.65 71.66 71.09 71.51 72.23 72.71 72.07 72.11 71.84 72.76 72.70 71.86 72.34 71.98 74.80 74.97 73.85 73.61 74.17 74.37 73.45
67.70 69.12 69.29 70.12 70.67 70.98 71.07 71.69 71.66 72.15 72.03 71.34 71.93 72.67 73.24 73.25 72.57 72.34 71.78 71.67 72.31 72.80 72.29 72.16 71.93 71.16 71.65 72.20 71.79 72.10 72.72 72.74 73.11 72.19 72.47 72.90 73.26 74.52 74.51 73.94 74.30 74.39 74.59
68.03 68.41 69.32 70.77 70.42 70.40 70.80 71.20 71.24 71.07 71.58 71.46 71.86 72.35 72.64 72.83 72.25 72.16 72.23 72.01 72.52 72.25 71.17 71.51 71.10 71.17 70.40 69.45 69.55 70.11 71.57 71.53 72.69 72.79 72.36 72.52 72.03 72.21 73.02 74.40 74.27 74.32 74.49
68.65 68.53 68.83 69.44 69.56 70.40 70.91 70.66 69.92 69.72 69.56 69.60 69.95 70.91 71.90 72.65 72.06 72.14 72.45 72.82 72.84 72.30 71.90 72.18 71.61 70.72 69.93 70.03 70.84 72.33 71.85 71.60 71.52 71.91 72.29 72.34 72.04 72.27 72.52 72.69 74.15 74.27 74.49
68.90 68.80 69.16 69.24 69.65 70.05 70.06 69.32 69.04 68.46 70.29 72.00 72.12 72.13 72.19 71.97 72.96 73.60 72.88 73.19 73.19 71.50 70.83 71.14 70.65 70.55 69.59 69.33 70.12 71.20 71.76 72.09 72.48 72.06 72.15 73.33 72.78 72.87 73.47 73.47 73.99 74.26 74.34
67.61 67.63 68.38 68.15 68.24 69.37 68.79 68.64 68.85 68.40 70.28 72.06 72.32 73.10 72.70 73.28 73.58 72.82 73.30 73.34 72.51 71.38 70.69 70.92 70.28 70.00 69.92 71.24 70.47 70.34 69.93 70.96 72.28 72.67 72.98 73.16 72.93 72.67 73.23 74.00 73.42 73.68 73.82
66.75 67.80 67.88 68.29 66.88 69.39 69.90 69.70 69.58 69.79 71.09 71.97 72.20 72.01 71.89 71.92 73.36 73.59 73.62 72.95 72.46 71.34 70.52 70.55 70.11 69.25 69.96 71.17 69.58 68.03 65.63 68.68 69.99 70.85 71.78 72.38 72.15 73.40 73.32 73.70 73.29 73.05 73.20
66.17 67.23 67.51 68.03 67.45 69.18 69.79 69.78 71.01 71.05 71.19 71.02 70.68 69.99 70.01 69.76 71.21 74.54 74.19 72.68 72.22 71.80 70.60 70.99 71.63 70.88 69.67 70.73 71.10 68.12 65.14 64.10 66.30 68.76 69.91 70.63 71.02 71.40 72.06 72.90 72.58 72.21 72.27
66.48 67.93 68.05 67.57 67.85 68.34 69.66 69.61 70.17 69.45 69.46 70.60 70.55 69.51 69.19 68.77 71.27 74.18 74.20 72.49 72.80 72.17 71.28 71.33 71.91 71.55 71.04 69.65 70.57 70.83 68.51 67.30 65.17 65.86 68.82 69.49 69.98 69.80 70.29 71.24 71.39 71.71 71.18
67.51 67.13 67.71 67.25 67.81 68.90 69.55 69.79 69.72 69.51 70.19 70.81 69.90 69.39 69.35 69.22 70.19 72.68 74.33 72.62 72.67 73.14 72.29 72.23 71.86 71.89 71.28 69.85 69.69 69.17 68.79 67.65 66.71 65.37 65.24 67.13 69.06 69.89 70.18 70.21 70.01 70.28 70.34
67.11 67.10 67.61 66.81 67.39 68.43 68.98 69.13 68.83 69.11 69.70 69.68 68.20 67.74 68.05 69.79 69.70 70.92 74.31 73.27 73.23 72.96 72.11 72.35 72.25 71.30 68.83 66.93 66.15 67.67 67.21 66.44 63.45 62.54 63.59 65.19 65.84 68.10 68.30 69.21 68.84 69.95 70.37
MSLP
1014.43 1014.35 1014.11 1014.01 1014.25 1014.41 1014.53 1014.44 1014.67 1015.04 1015.27 1015.50 1015.69 1015.87 1015.95 1016.03 1016.16 1016.15 1016.11 1016.10 1016.26 1016.42 1016.59 1016.73 1016.85 1016.94 1016.99 1017.08 1017.15 1017.24 1017.32 1017.37 1017.48 1017.69 1017.90 1018.11 1018.32 1018.49 1018.66 1018.76 1018.98 1019.15 1019.34
1013.90 1014.16 1013.98 1014.13 1014.44 1014.74 1014.86 1014.99 1015.13 1015.57 1015.74 1015.91 1015.99 1016.15 1016.29 1016.41 1016.53 1016.53 1016.51 1016.59 1016.68 1016.72 1016.83 1017.00 1017.17 1017.29 1017.42 1017.46 1017.61 1017.57 1017.64 1017.68 1017.77 1017.93 1018.07 1018.32 1018.59 1018.77 1018.85 1019.05 1019.16 1019.37 1019.53
1013.95 1014.11 1014.26 1014.54 1014.86 1015.10 1015.27 1015.40 1015.66 1015.94 1016.20 1016.34 1016.42 1016.45 1016.59 1016.74 1016.86 1016.95 1016.98 1016.98 1017.13 1017.07 1017.15 1017.30 1017.48 1017.68 1017.81 1017.90 1017.97 1018.04 1018.10 1018.14 1018.13 1018.14 1018.43 1018.66 1018.82 1018.97 1019.07 1019.28 1019.43 1019.60 1019.82
1013.99 1014.32 1014.47 1014.86 1015.22 1015.43 1015.69 1015.87 1016.06 1016.27 1016.60 1016.68 1016.71 1016.79 1016.89 1016.99 1017.17 1017.23 1017.13 1017.22 1017.37 1017.45 1017.50 1017.65 1017.76 1017.97 1018.06 1018.20 1018.31 1018.29 1018.40 1018.39 1018.40 1018.60 1018.82 1018.95 1018.93 1019.16 1019.28 1019.53 1019.73 1019.75 1020.01
1014.37 1014.61 1014.71 1015.02 1015.44 1015.75 1015.94 1016.16 1016.39 1016.54 1016.80 1016.90 1016.93 1017.04 1017.10 1017.20 1017.40 1017.59 1017.56 1017.63 1017.72 1017.83 1017.89 1018.00 1018.07 1018.30 1018.46 1018.48 1018.51 1018.51 1018.68 1018.69 1018.78 1019.04 1019.30 1019.37 1019.37 1019.35 1019.58 1019.73 1019.93 1020.07 1020.20
1014.76 1014.84 1014.98 1015.25 1015.63 1015.97 1016.29 1016.57 1016.73 1016.82 1017.03 1017.15 1017.17 1017.30 1017.26 1017.43 1017.61 1017.84 1017.89 1017.92 1018.00 1018.07 1018.15 1018.25 1018.39 1018.58 1018.72 1018.87 1018.86 1018.85 1019.00 1019.06 1019.15 1019.34 1019.46 1019.60 1019.66 1019.57 1019.87 1019.98 1019.99 1020.26 1020.41
1014.96 1015.00 1015.24 1015.59 1015.92 1016.24 1016.56 1016.82 1016.95 1017.07 1017.26 1017.41 1017.44 1017.48 1017.45 1017.58 1017.77 1017.98 1018.13 1018.19 1018.20 1018.31 1018.39 1018.46 1018.59 1018.74 1018.89 1019.01 1019.08 1019.13 1019.20 1019.24 1019.47 1019.69 1019.78 1019.79 1019.88 1019.79 1020.02 1020.09 1020.30 1020.51 1020.52
1015.08 1015.20 1015.46 1015.83 1016.12 1016.33 1016.63 1016.86 1017.08 1017.27 1017.40 1017.57 1017.65 1017.66 1017.65 1017.78 1017.93 1018.09 1018.24 1018.36 1018.39 1018.50 1018.55 1018.66 1018.77 1018.85 1018.94 1019.06 1019.19 1019.28 1019.38 1019.39 1019.59 1019.78 1019.86 1020.06 1020.07 1020.03 1020.27 1020.18 1020.36 1020.72 1020.76
1015.21 1015.52 1015.74 1015.94 1016.15 1016.35 1016.71 1016.90 1017.11 1017.32 1017.55 1017.73 1017.74 1017.79 1017.84 1017.98 1018.12 1018.23 1018.36 1018.45 1018.46 1018.53 1018.63 1018.70 1018.91 1018.99 1018.99 1019.08 1019.20 1019.35 1019.49 1019.76 1019.96 1019.99 1020.01 1020.15 1020.17 1020.08 1020.22 1020.35 1020.52 1020.70 1020.87
1015.63 1015.79 1016.11 1016.28 1016.46 1016.65 1016.81 1016.92 1017.17 1017.42 1017.63 1017.76 1017.81 1017.87 1017.95 1018.01 1018.11 1018.19 1018.39 1018.49 1018.52 1018.60 1018.65 1018.79 1018.87 1019.02 1019.09 1019.14 1019.17 1019.28 1019.44 1019.64 1019.92 1020.02 1020.06 1020.19 1020.24 1020.09 1020.22 1020.43 1020.54 1020.76 1020.90
1016.12 1016.30 1016.35 1016.51 1016.72 1016.90 1017.02 1017.09 1017.18 1017.39 1017.55 1017.77 1017.84 1017.90 1018.06 1018.29 1018.34 1018.42 1018.48 1018.54 1018.55 1018.60 1018.60 1018.70 1018.86 1018.93 1019.03 1019.21 1019.22 1019.27 1019.32 1019.65 1019.80 1020.00 1020.06 1020.04 1020.16 1020.10 1020.36 1020.45 1020.61 1020.79 1021.02
1016.16 1016.41 1016.59 1016.60 1016.81 1017.03 1017.06 1017.23 1017.34 1017.51 1017.64 1017.95 1018.03 1018.22 1018.43 1018.51 1018.58 1018.57 1018.55 1018.42 1018.44 1018.47 1018.60 1018.63 1018.74 1018.82 1018.94 1019.29 1019.42 1019.40 1019.49 1019.56 1019.63 1019.74 1019.83 1019.88 1019.98 1020.11 1020.20 1020.44 1020.60 1020.80 1021.10
1015.99 1016.34 1016.53 1016.60 1016.85 1017.07 1017.14 1017.42 1017.62 1017.77 1017.92 1018.08 1018.20 1018.42 1018.54 1018.55 1018.65 1018.68 1018.63 1018.58 1018.59 1018.53 1018.64 1018.55 1018.71 1018.85 1018.86 1019.12 1019.38 1019.42 1019.33 1019.26 1019.32 1019.47 1019.54 1019.70 1019.84 1019.93 1020.09 1020.58 1020.70 1021.05 1021.24
1015.99 1016.17 1016.41 1016.54 1016.85 1017.07 1017.27 1017.56 1017.74 1017.94 1017.93 1018.06 1018.20 1018.38 1018.50 1018.48 1018.55 1018.56 1018.51 1018.49 1018.55 1018.58 1018.72 1018.58 1018.78 1018.92 1018.90 1019.09 1019.18 1019.23 1019.17 1019.18 1019.20 1019.32 1019.54 1019.65 1019.72 1019.78 1020.17 1020.83 1021.06 1021.15 1021.18
1015.73 1015.87 1016.18 1016.42 1016.76 1016.99 1017.30 1017.47 1017.69 1017.82 1017.81 1017.92 1018.03 1018.09 1018.24 1018.22 1018.29 1018.34 1018.33 1018.33 1018.39 1018.30 1018.31 1018.60 1018.78 1018.89 1018.94 1018.97 1019.10 1019.11 1019.14 1019.05 1019.12 1019.23 1019.38 1019.50 1019.53 1019.70 1020.15 1020.63 1020.77 1020.88 1021.09
1015.39 1015.61 1015.99 1016.31 1016.53 1016.87 1017.11 1017.27 1017.41 1017.57 1017.58 1017.73 1017.78 1017.72 1017.82 1017.97 1018.10 1018.17 1018.17 1018.17 1018.10 1018.16 1018.32 1018.40 1018.57 1018.67 1018.78 1018.88 1018.93 1018.99 1018.94 1019.05 1019.10 1019.04 1019.21 1019.33 1019.40 1019.58 1020.15 1020.50 1020.60 1020.57 1020.87
1014.92 1015.38 1015.73 1016.08 1016.29 1016.77 1016.94 1017.11 1017.27 1017.27 1017.40 1017.56 1017.59 1017.47 1017.52 1017.75 1017.90 1017.95 1017.98 1017.93 1017.90 1017.92 1018.14 1018.37 1018.46 1018.64 1018.83 1018.85 1019.00 1018.74 1018.74 1018.91 1018.85 1018.95 1019.14 1019.35 1019.44 1019.44 1019.93 1020.30 1020.44 1020.49 1020.64
1014.52 1015.02 1015.49 1015.82 1016.19 1016.48 1016.71 1016.88 1017.14 1017.17 1017.15 1017.25 1017.29 1017.27 1017.32 1017.51 1017.66 1017.75 1017.88 1017.96 1017.90 1018.00 1017.98 1018.29 1018.53 1018.82 1019.01 1019.06 1019.01 1018.89 1018.74 1018.83 1018.84 1018.90 1019.01 1019.13 1019.29 1019.57 1019.89 1020.07 1020.17 1020.41 1020.55
1013.92 1014.50 1015.12 1015.52 1015.83 1016.18 1016.50 1016.86 1017.03 1017.03 1017.09 1017.02 1016.93 1016.97 1016.98 1017.38 1017.54 1017.65 1017.94 1017.99 1017.85 1017.87 1018.04 1018.28 1018.59 1018.93 1019.05 1019.14 1019.17 1019.01 1018.99 1018.92 1018.71 1018.64 1018.73 1018.93 1019.17 1019.55 1019.78 1020.00 1020.09 1020.19 1020.36
1013.74 1014.20 1014.79 1015.31 1015.66 1016.08 1016.52 1016.80 1016.98 1017.08 1016.89 1016.84 1016.89 1016.90 1016.91 1017.15 1017.39 1017.63 1017.81 1017.88 1017.82 1017.92 1018.09 1018.22 1018.49 1018.70 1018.98 1019.13 1018.93 1018.92 1018.88 1018.69 1018.59 1018.59 1018.52 1018.75 1018.97 1019.08 1019.45 1019.77 1019.94 1020.02 1020.15
1013.55 1014.14 1014.41 1015.08 1015.47 1015.98 1016.51 1016.95 1017.23 1017.22 1017.00 1016.99 1016.95 1016.91 1017.07 1017.24 1017.50 1017.60 1017.62 1017.70 1017.82 1017.98 1018.09 1018.23 1018.43 1018.66 1018.86 1018.91 1018.96 1018.81 1018.78 1018.67 1018.73 1018.88 1018.86 1018.80 1018.86 1019.10 1019.37 1019.70 1019.83 1019.95 1019.94
1012.73 1013.50 1014.12 1014.63 1015.18 1015.63 1015.98 1016.46 1016.75 1016.77 1016.89 1016.88 1016.89 1016.91 1016.98 1017.15 1017.24 1017.33 1017.50 1017.67 1017.72 1018.03 1018.28 1018.40 1018.45 1018.65 1018.75 1018.90 1019.12 1019.23 1019.29 1019.29 1019.23 1019.27 1019.14 1019.14 1019.18 1019.35 1019.47 1019.63 1019.87 1020.09 1020.33
1012.58 1012.92 1013.42 1013.98 1014.72 1015.27 1015.75 1016.26 1016.57 1016.61 1016.79 1017.03 1017.10 1017.16 1017.18 1017.13 1017.04 1016.97 1017.21 1017.39 1017.66 1017.76 1018.08 1018.18 1018.30 1018.34 1018.54 1018.75 1018.91 1019.13 1019.45 1019.61 1019.68 1019.71 1019.75 1019.68 1019.61 1019.63 1019.84 1019.97 1020.11 1020.19 1020.44
1011.67 1012.45 1013.04 1013.78 1014.37 1014.87 1015.42 1015.86 1016.07 1016.38 1016.85 1016.84 1016.97 1017.17 1017.27 1017.22 1017.12 1016.88 1016.90 1017.21 1017.44 1017.60 1017.95 1018.07 1018.26 1018.40 1018.43 1018.67 1018.91 1018.99 1019.11 1019.23 1019.52 1020.01 1019.94 1019.99 1020.15 1020.32 1020.44 1020.36 1020.36 1020.40 1020.51
1011.26 1011.82 1012.36 1013.34 1014.03 1014.54 1015.16 1015.45 1015.82 1016.30 1016.40 1016.45 1016.73 1017.06 1017.29 1017.21 1016.85 1016.60 1016.82 1016.96 1017.05 1017.12 1017.29 1017.54 1017.83 1018.21 1018.38 1018.56 1018.71 1018.89 1019.05 1019.29 1019.41 1019.80 1020.25 1020.45 1020.46 1020.62 1020.59 1020.51 1020.56 1020.91 1020.94
1010.92 1011.69 1012.27 1012.99 1013.56 1014.13 1014.78 1015.19 1015.61 1015.98 1016.12 1016.42 1016.79 1017.12 1017.05 1016.97 1016.71 1016.57 1016.45 1016.49 1016.59 1016.84 1016.91 1017.11 1017.50 1017.95 1018.31 1018.61 1018.77 1018.84 1019.04 1019.29 1019.39 1019.65 1020.18 1020.63 1020.81 1021.11 1021.06 1020.79 1020.82 1020.82 1020.95
Wind_Speed
3 6 13 16 16 17 16 18 17 17 17 16 17 17 16 15 14 15 14 16 15 15 16 16 15 15 14 14 15 15 14 14 14 13 14 14 13 13 14 15 14 13 13
9 6 14 15 17 17 16 17 17 16 16 16 15 15 16 15 14 14 14 15 15 14 16 16 14 14 13 13 13 14 13 11 12 13 13 12 13 12 13 13 13 12 14
10 8 11 15 16 17 15 16 16 16 15 14 14 15 14 14 14 13 13 16 14 14 14 14 14 13 11 12 12 12 10 9 9 10 11 5 6 12 12 12 13 14 14
10 6 9 15 14 16 15 15 15 16 15 14 14 13 13 14 13 11 13 13 12 12 12 11 11 10 10 10 8 8 8 8 8 8 5 4 7 12 12 12 10 13 13
8 5 11 15 14 15 15 15 14 15 14 14 14 13 13 12 12 11 11 12 11 10 10 9 9 9 8 7 7 6 7 8 7 6 5 3 2 10 12 12 11 11 12
7 7 12 16 15 14 14 14 14 14 13 12 13 12 12 11 11 10 9 9 9 9 8 8 7 6 6 6 5 5 5 7 7 4 4 4 2 10 11 11 11 11 11
7 6 10 14 14 14 12 12 12 12 12 11 11 10 11 10 9 9 9 8 8 6 6 5 4 3 4 4 3 2 2 6 5 4 4 4 3 10 12 12 11 10 10
9 6 8 14 14 13 12 12 11 11 10 9 9 8 8 7 7 6 7 7 7 6 4 4 3 2 3 2 1 1 3 4 6 5 3 3 5 9 10 11 12 9 9
8 6 5 6 10 13 12 11 11 10 10 9 8 6 5 4 4 4 4 5 5 5 5 5 5 4 4 3 2 1 2 6 3 3 3 2 5 7 10 10 10 11 10
5 5 5 4 4 5 5 12 11 10 9 9 8 7 6 6 6 5 5 5 5 5 5 6 5 5 5 4 3 3 1 3 2 3 3 2 8 9 10 11 10 9 8
5 4 5 5 4 4 4 5 10 11 10 9 7 7 6 1 2 3 3 5 6 6 7 6 6 6 6 6 6 5 4 1 2 1 2 6 9 10 10 12 10 9 8
7 5 4 5 5 5 3 3 4 4 3 2 3 3 1 2 2 3 5 7 8 8 9 8 8 8 7 2 2 3 1 2 2 3 2 7 9 11 10 11 11 10 10
7 6 6 5 5 5 3 2 1 1 1 2 3 2 2 2 2 2 2 2 2 8 2 3 4 2 3 2 2 2 3 4 3 2 4 8 8 11 9 5 5 4 6
8 9 7 6 5 5 2 3 3 2 3 1 2 4 3 2 2 2 2 3 2 2 2 2 1 2 3 4 3 4 5 3 2 2 3 9 9 12 9 16 12 11 9
10 10 8 7 6 5 5 3 3 3 3 3 4 4 3 3 3 2 3 3 3 3 2 2 2 2 3 4 3 4 5 5 5 2 2 8 9 8 8 12 14 17 14
10 10 8 9 6 5 6 5 4 3 4 3 4 4 5 3 3 3 3 4 4 3 2 3 4 2 3 3 3 4 5 4 3 3 2 3 12 8 10 9 15 16 18
9 9 9 9 7 7 6 5 4 5 4 4 4 5 5 4 4 4 3 3 4 2 2 2 2 2 1 1 3 3 3 3 3 4 3 3 3 5 11 13 15 16 18
10 9 7 9 9 7 7 5 3 4 4 3 3 4 5 5 5 3 3 3 2 2 2 2 3 2 1 2 3 3 3 3 4 3 3 1 2 1 3 13 11 15 17
13 11 9 8 8 8 6 4 5 5 4 4 4 3 5 4 4 3 2 3 2 1 1 2 1 0 0 1 3 2 2 2 4 3 5 3 2 3 3 7 12 14 16
11 10 9 7 7 7 4 2 2 3 3 2 3 3 3 4 4 3 2 2 0 0 1 2 2 2 1 1 2 2 2 2 2 3 4 3 4 6 5 5 3 2 13
8 9 10 9 7 6 3 3 1 3 2 1 1 1 3 1 4 4 2 2 1 2 2 3 2 2 1 1 2 1 1 3 1 2 2 2 3 2 3 2 1 2 1
14 12 10 11 8 7 4 3 3 3 2 2 1 3 3 3 1 3 3 3 3 3 3 2 2 2 1 1 1 1 3 2 3 5 4 3 4 2 3 3 3 4 4
11 13 13 13 10 8 6 4 1 3 2 2 1 2 1 2 3 4 5 4 3 3 3 3 3 3 2 1 2 3 1 0 0 3 6 5 5 4 4 4 6 6 7
15 11 10 9 9 8 8 6 6 4 3 3 3 3 3 4 3 3 4 4 4 3 3 3 2 2 2 2 1 2 1 2 2 2 3 4 6 6 6 5 6 7 7
12 14 11 9 8 8 9 8 5 4 3 2 2 4 2 3 5 4 5 5 5 4 4 4 3 3 1 1 1 2 1 1 2 2 2 1 4 4 5 5 6 5 6
9 9 10 10 10 8 8 8 8 8 6 4 3 4 4 3 3 5 6 5 4 4 4 3 3 4 3 2 1 1 1 1 1 2 2 2 3 3 3 5 4 4 4
Wind_Direction
191 160 139 123 117 114 111 108 104 108 109 115 116 118 117 117 115 110 112 110 110 111 111 108 104 101 102 106 104 104 106 105 106 111 107 108 105 106 104 106 108 103 102
135 160 135 123 125 120 113 108 108 110 115 118 118 116 117 116 113 116 117 115 116 118 113 111 106 103 102 107 101 103 99 105 116 112 114 114 117 115 113 112 111 110 105
138 149 135 128 130 123 117 112 116 115 118 121 119 120 119 119 115 121 113 115 120 117 115 112 112 114 111 107 106 95 97 106 100 107 108 116 117 121 116 113 117 111 115
137 143 136 135 133 128 124 122 121 121 125 122 122 119 123 120 117 115 113 114 118 119 118 111 105 101 112 123 123 101 102 113 113 96 86 117 127 128 124 121 128 129 126
120 121 141 136 136 133 127 126 127 128 128 125 125 126 124 119 119 118 112 117 120 115 113 111 111 112 117 121 133 118 108 146 129 84 73 80 105 132 132 130 131 128 131
126 131 142 142 142 138 132 130 130 129 132 131 125 126 121 121 120 116 115 114 119 123 115 113 116 122 126 132 139 144 148 146 134 126 116 95 147 142 138 140 138 141 141
132 133 140 148 146 143 141 138 135 135 136 135 132 128 125 121 119 122 123 118 116 119 118 120 129 149 135 141 146 154 86 155 149 154 149 140 181 158 150 149 144 148 144
143 130 147 152 152 149 150 147 145 146 146 146 142 136 129 131 135 137 137 135 136 142 150 150 163 186 188 173 167 76 96 104 151 160 160 153 193 162 156 160 149 150 148
144 130 136 151 161 161 165 161 156 157 157 159 155 155 152 162 172 168 173 165 164 169 182 191 188 222 238 242 250 319 49 111 115 163 193 178 223 189 161 162 157 159 153
124 131 135 141 152 159 167 175 170 168 170 178 176 182 193 201 203 204 202 212 199 193 201 200 221 210 235 242 238 241 241 188 114 138 178 184 223 206 180 174 168 158 156
139 146 151 156 161 169 170 190 183 178 186 195 196 201 204 158 304 267 237 233 243 239 230 218 218 231 241 241 234 243 244 162 186 200 185 202 205 209 195 181 177 170 170
171 170 168 168 174 169 184 216 158 195 179 195 200 227 173 206 232 239 247 239 240 241 245 240 243 244 242 231 294 320 321 243 219 224 215 224 208 217 205 186 177 176 176
178 178 178 178 177 175 193 175 190 195 190 215 224 222 238 235 244 277 273 278 308 268 246 266 279 256 232 199 242 258 264 244 229 224 236 230 226 222 206 190 178 189 195
178 185 178 180 177 186 180 192 195 198 215 206 235 228 225 241 236 249 251 255 264 276 256 274 291 269 253 242 218 234 256 261 238 216 233 252 234 228 178 199 163 218 219
187 191 188 180 181 185 198 196 197 208 218 212 226 224 203 223 242 259 253 255 240 229 206 245 246 275 285 260 232 216 251 258 258 244 239 242 250 225 218 210 191 200 215
192 196 186 192 181 177 204 205 203 202 218 216 232 234 218 218 232 239 262 245 237 225 210 211 238 241 254 238 244 230 240 249 244 235 249 244 259 221 182 211 235 209 215
196 188 190 189 178 183 200 212 211 211 211 224 229 239 232 221 233 247 264 262 254 245 234 227 210 180 232 340 283 266 261 270 234 217 234 235 264 263 211 207 231 230 223
187 187 185 193 186 190 198 209 220 226 221 227 241 236 231 225 230 249 274 278 291 272 226 194 185 235 285 263 290 302 285 283 282 260 234 216 173 199 272 216 237 228 231
190 183 188 187 184 191 200 201 224 245 240 230 253 244 235 191 217 224 269 282 323 298 244 198 156 150 330 323 295 300 329 294 270 281 264 228 245 218 230 265 273 232 230
197 186 184 187 184 177 174 186 233 258 263 254 265 250 212 174 182 203 251 284 175 124 81 131 136 138 146 228 299 307 268 255 241 248 259 246 230 224 219 222 244 254 241
176 181 178 174 186 163 149 161 171 223 220 252 223 113 78 137 181 219 226 140 82 67 66 133 115 133 137 43 324 356 44 32 37 343 313 298 299 253 204 219 233 176 168
184 184 175 187 175 183 175 147 174 181 169 119 113 94 85 110 165 167 187 148 121 103 102 119 103 131 136 127 99 71 20 13 46 29 49 26 59 102 125 117 97 64 42
184 186 185 184 176 180 161 133 129 94 71 85 67 74 62 180 199 167 166 148 149 133 150 158 151 124 130 106 140 131 110 140 47 3 41 35 55 63 67 89 90 81 74
201 188 184 171 175 181 158 172 182 148 154 196 162 163 166 198 181 148 151 157 154 148 169 174 159 149 145 139 134 135 132 151 142 128 24 50 58 57 63 72 85 83 85
183 189 182 165 176 184 174 186 186 149 179 175 139 143 159 199 196 167 170 174 176 180 175 174 157 162 150 130 167 160 135 122 117 131 137 54 68 48 74 94 94 81 71
177 172 178 172 187 180 174 182 190 184 191 178 156 169 199 217 219 196 187 187 191 193 175 160 147 139 124 114 127 173 173 166 163 133 119 120 133 61 55 74 82 103 91